Terminal Aerodrome Forecast
Issued by NWS Columbia, SC

Home | Current Version | Previous Version | Text Only | Print | Product List | Glossary On
Versions: 1 2 3 4 5 6 7 8 9 10 11 12 13 14 15 16 17 18 19 20 21 22 23 24 25 26 27 28 29 30 31 32 33 34 35 36 37 38 39 40 41 42 43 44 45 46 47 48 49 50
000
FTUS42 KCAE 312226 AAB
TAFAGS
TAF AMD
KAGS 312226Z 3122/0118 11007G17KT 3SM SHRA SCT020 BKN035
     FM312330 11007KT P6SM VCSH SCT020 BKN035
     FM010000 VRB03KT P6SM SCT035 BKN250
     FM010600 VRB03KT 3SM BR SCT010
     FM010800 VRB03KT 1/2SM FG SCT005
     FM011400 21005KT P6SM SCT040=

USA.gov is the U.S. government's official web portal to all federal, state and local government web resources and services.